EA3BIN-13 Weather Reports


Display with metric or nautical units.
time (UTC)temp
F
wind
direction
speed
MPH
gust
MPH
rain 1hr
in
rain 24hr
in
rain mn
in
humidity
%
barometer
mb
20260905145035 119 0.0 0.0 0.00 0.00 0.00 17 1017.1
20260905144035 121 0.0 0.0 0.00 0.00 0.00 15 1017.1
20260905143035 117 0.0 0.0 0.00 0.00 0.00 19 1017.5
20260905142035 113 0.0 0.0 0.00 0.00 0.00 20 1017.7
20260905141035 99 0.0 0.0 0.00 0.00 0.00 28 1019.0
20260905140040 98 0.0 0.0 0.00 0.00 0.00 27 1019.0
20260905135035 99 0.0 0.0 0.00 0.00 0.00 29 1019.1
20260905134040 98 0.0 0.0 0.00 0.00 0.00 26 1019.1
20260905133040 98 0.0 0.0 0.00 0.00 0.00 27 1019.2
20260905132035 98 0.0 0.0 0.00 0.00 0.00 28 1019.4
20260905131035 99 0.0 0.0 0.00 0.00 0.00 26 1019.2
20260905130035 98 0.0 0.0 0.00 0.00 0.00 29 1019.3
20260905125035 98 0.0 0.0 0.00 0.00 0.00 27 1019.5
20260905124035 98 0.0 0.0 0.00 0.00 0.00 29 1019.6
20260905123035 98 0.0 0.0 0.00 0.00 0.00 27 1019.6
20260905122041 98 0.0 0.0 0.00 0.00 0.00 27 1019.7
20260905121035 98 0.0 0.0 0.00 0.00 0.00 27 1019.8
20260905120035 97 0.0 0.0 0.00 0.00 0.00 27 1020.0
20260905115035 97 0.0 0.0 0.00 0.00 0.00 31 1020.0
20260905114035 97 0.0 0.0 0.00 0.00 0.00 28 1020.1
20260905113035 96 0.0 0.0 0.00 0.00 0.00 29 1020.3
20260905112035 95 0.0 0.0 0.00 0.00 0.00 32 1020.3
20260905111035 95 0.0 0.0 0.00 0.00 0.00 34 1020.3
20260905110035 96 0.0 0.0 0.00 0.00 0.00 29 1020.2
20260905105035 95 0.0 0.0 0.00 0.00 0.00 30 1020.3
20260905104035 95 0.0 0.0 0.00 0.00 0.00 33 1020.3
20260905103041 94 0.0 0.0 0.00 0.00 0.00 32 1020.3
20260905102035 93 0.0 0.0 0.00 0.00 0.00 34 1020.6
20260905101035 94 0.0 0.0 0.00 0.00 0.00 34 1020.5
20260905100035 94 0.0 0.0 0.00 0.00 0.00 33 1020.5
20260905095040 93 0.0 0.0 0.00 0.00 0.00 32 1020.5
20260905094035 92 0.0 0.0 0.00 0.00 0.00 34 1020.6
20260905093035 91 0.0 0.0 0.00 0.00 0.00 39 1020.7
20260905092040 87 0.0 0.0 0.00 0.00 0.00 54 1021.1
20260905091035 88 0.0 0.0 0.00 0.00 0.00 55 1021.0
20260905090035 86 0.0 0.0 0.00 0.00 0.00 59 1021.0
20260905085041 86 0.0 0.0 0.00 0.00 0.00 60 1021.1
20260905084035 84 0.0 0.0 0.00 0.00 0.00 65 1021.2
20260905083041 84 0.0 0.0 0.00 0.00 0.00 66 1021.1
20260905082035 82 0.0 0.0 0.00 0.00 0.00 71 1021.3
20260905081041 82 0.0 0.0 0.00 0.00 0.00 73 1021.3
20260905080040 81 0.0 0.0 0.00 0.00 0.00 75 1021.3
20260905075035 80 0.0 0.0 0.00 0.00 0.00 79 1021.3
20260905074035 79 0.0 0.0 0.00 0.00 0.00 86 1021.4
20260905073035 76 0.0 0.0 0.00 0.00 0.00 96 1021.7
20260905072035 75 0.0 0.0 0.00 0.00 0.00 96 1021.8
20260905071035 76 0.0 0.0 0.00 0.00 0.00 96 1021.7
20260905070035 75 0.0 0.0 0.00 0.00 0.00 10 1021.7
20260905065035 74 0.0 0.0 0.00 0.00 0.00 10 1021.7
20260905064035 73 0.0 0.0 0.00 0.00 0.00 10 1021.7
20260905063035 72 0.0 0.0 0.00 0.00 0.00 10 1021.8
20260905062035 72 0.0 0.0 0.00 0.00 0.00 10 1021.8
20260905061035 72 0.0 0.0 0.00 0.00 0.00 10 1021.7
20260905060035 71 0.0 0.0 0.00 0.00 0.00 10 1021.7
20260905055035 71 0.0 0.0 0.00 0.00 0.00 10 1021.6
20260905054035 70 0.0 0.0 0.00 0.00 0.00 10 1021.4
20260905053035 71 0.0 0.0 0.00 0.00 0.00 10 1021.4
20260905052035 71 0.0 0.0 0.00 0.00 0.00 10 1021.4
20260905051035 71 0.0 0.0 0.00 0.00 0.00 10 1021.3
20260905050035 71 0.0 0.0 0.00 0.00 0.00 10 1021.2
20260905045035 71 0.0 0.0 0.00 0.00 0.00 10 1021.3
20260905044041 71 0.0 0.0 0.00 0.00 0.00 10 1021.2
20260905043035 72 0.0 0.0 0.00 0.00 0.00 10 1021.0
20260905042040 72 0.0 0.0 0.00 0.00 0.00 10 1020.9
20260905041035 72 0.0 0.0 0.00 0.00 0.00 10 1020.8
20260905040041 72 0.0 0.0 0.00 0.00 0.00 10 1020.8
20260905035035 73 0.0 0.0 0.00 0.00 0.00 10 1020.7
20260905034035 73 0.0 0.0 0.00 0.00 0.00 10 1020.7
20260905033035 72 0.0 0.0 0.00 0.00 0.00 10 1020.7
20260905032041 72 0.0 0.0 0.00 0.00 0.00 10 1020.8
20260905031041 72 0.0 0.0 0.00 0.00 0.00 10 1020.6
20260905030035 72 0.0 0.0 0.00 0.00 0.00 10 1020.5
20260905025035 72 0.0 0.0 0.00 0.00 0.00 10 1020.5
20260905024036 73 0.0 0.0 0.00 0.00 0.00 10 1020.5
20260905023036 73 0.0 0.0 0.00 0.00 0.00 10 1020.5
20260905022035 73 0.0 0.0 0.00 0.00 0.00 10 1020.5
20260905021035 73 0.0 0.0 0.00 0.00 0.00 10 1020.6
20260905020035 74 0.0 0.0 0.00 0.00 0.00 10 1020.5
20260905015035 74 0.0 0.0 0.00 0.00 0.00 10 1020.4
20260905014035 74 0.0 0.0 0.00 0.00 0.00 10 1020.4
20260905013035 74 0.0 0.0 0.00 0.00 0.00 10 1020.4
20260905012041 75 0.0 0.0 0.00 0.00 0.00 10 1020.5
20260905011035 75 0.0 0.0 0.00 0.00 0.00 10 1020.5
20260905010035 75 0.0 0.0 0.00 0.00 0.00 10 1020.5
20260905005036 75 0.0 0.0 0.00 0.00 0.00 10 1020.5
20260905004035 75 0.0 0.0 0.00 0.00 0.00 10 1020.5
20260905003035 76 0.0 0.0 0.00 0.00 0.00 10 1020.5
20260905002035 76 0.0 0.0 0.00 0.00 0.00 10 1020.5
20260905001036 76 0.0 0.0 0.00 0.00 0.00 10 1020.4
20260905000040 76 0.0 0.0 0.00 0.00 0.00 10 1020.4
20260904235035 76 0.0 0.0 0.00 0.00 0.00 10 1020.5
20260904234041 76 0.0 0.0 0.00 0.00 0.00 10 1020.5
20260904233035 76 0.0 0.0 0.00 0.00 0.00 10 1020.4
20260904232035 77 0.0 0.0 0.00 0.00 0.00 10 1020.5
20260904231035 77 0.0 0.0 0.00 0.00 0.00 10 1020.5
20260904230035 77 0.0 0.0 0.00 0.00 0.00 10 1020.6
20260904225035 77 0.0 0.0 0.00 0.00 0.00 10 1020.4
20260904224035 77 0.0 0.0 0.00 0.00 0.00 99 1020.3
20260904223041 77 0.0 0.0 0.00 0.00 0.00 98 1020.4
20260904222035 77 0.0 0.0 0.00 0.00 0.00 96 1020.4
20260904221035 77 0.0 0.0 0.00 0.00 0.00 92 1020.3
20260904220035 77 0.0 0.0 0.00 0.00 0.00 91 1020.3
20260904215041 78 0.0 0.0 0.00 0.00 0.00 93 1020.1
20260904214036 78 0.0 0.0 0.00 0.00 0.00 95 1020.2
20260904213035 79 0.0 0.0 0.00 0.00 0.00 10 1020.2
20260904212035 79 0.0 0.0 0.00 0.00 0.00 10 1020.1
20260904211040 80 0.0 0.0 0.00 0.00 0.00 10 1020.1
20260904210041 80 0.0 0.0 0.00 0.00 0.00 10 1020.1
20260904205035 80 0.0 0.0 0.00 0.00 0.00 10 1020.1
20260904204041 81 0.0 0.0 0.00 0.00 0.00 98 1019.9
20260904203036 81 0.0 0.0 0.00 0.00 0.00 98 1020.1
20260904202035 81 0.0 0.0 0.00 0.00 0.00 93 1019.9
20260904201041 82 0.0 0.0 0.00 0.00 0.00 92 1019.8
20260904200036 82 0.0 0.0 0.00 0.00 0.00 92 1019.7
20260904195036 82 0.0 0.0 0.00 0.00 0.00 91 1019.6
20260904194041 82 0.0 0.0 0.00 0.00 0.00 91 1019.6
20260904193035 82 0.0 0.0 0.00 0.00 0.00 90 1019.4
20260904192035 83 0.0 0.0 0.00 0.00 0.00 90 1019.4
20260904191041 83 0.0 0.0 0.00 0.00 0.00 90 1019.2
20260904190037 83 0.0 0.0 0.00 0.00 0.00 88 1019.0
20260904185036 84 0.0 0.0 0.00 0.00 0.00 87 1018.9
20260904184035 84 0.0 0.0 0.00 0.00 0.00 85 1018.8
20260904183035 84 0.0 0.0 0.00 0.00 0.00 84 1018.6
20260904182035 84 0.0 0.0 0.00 0.00 0.00 82 1018.4
20260904181035 85 0.0 0.0 0.00 0.00 0.00 79 1018.2
20260904180036 86 0.0 0.0 0.00 0.00 0.00 78 1018.0
20260904175035 87 0.0 0.0 0.00 0.00 0.00 75 1017.8
20260904174035 88 0.0 0.0 0.00 0.00 0.00 72 1017.7
20260904173036 89 0.0 0.0 0.00 0.00 0.00 62 1017.4
20260904172041 93 0.0 0.0 0.00 0.00 0.00 51 1017.0
20260904171035 109 0.0 0.0 0.00 0.00 0.00 30 1015.5
20260904170035 112 0.0 0.0 0.00 0.00 0.00 28 1015.2
20260904165041 114 0.0 0.0 0.00 0.00 0.00 27 1014.9
20260904164035 119 0.0 0.0 0.00 0.00 0.00 23 1014.4
20260904163041 120 0.0 0.0 0.00 0.00 0.00 22 1014.3
20260904162041 124 0.0 0.0 0.00 0.00 0.00 20 1014.0
20260904161036 129 0.0 0.0 0.00 0.00 0.00 17 1013.8
20260904160035 129 0.0 0.0 0.00 0.00 0.00 17 1013.8
20260904155035 128 0.0 0.0 0.00 0.00 0.00 17 1013.9
20260904154036 129 0.0 0.0 0.00 0.00 0.00 17 1013.9
20260904153035 127 0.0 0.0 0.00 0.00 0.00 18 1013.9
20260904152036 130 0.0 0.0 0.00 0.00 0.00 16 1013.8
20260904151036 130 0.0 0.0 0.00 0.00 0.00 16 1013.9
20260904150041 129 0.0 0.0 0.00 0.00 0.00 17 1013.9